TIME,DELAY(SENSOR),PRES,OXYGEN,RAWTEMP,T(OPTODE),TCPHASE,FLUOR,BETA(BETA700),BETA(BETA412),BETA(BETA440),CDOM,C(CSC),ED(ED412.20),ED(ED444.00),ED(ED489.60),ED(ED554.30),LU(LU412.10),LU(LU443.90),LU(LU489.70),LU(LU554.70),COMP,TILTX,TILTY,CHECK
1360982679,5808,873.1599731445312000,30.9067592620849600,560.3292236328125000,4.4756908416748050,56.9468383789062500,55,98,100,78,82,15540,0,0,0,0,2147122569,2147771382,2147570505,2147572388,551,3,13,10814
1360986275,5809,940.0800170898438000,38.9973983764648440,564.2352294921875000,4.3545651435852050,55.7048606872558600,55,99,101,78,81,15536,0,0,0,0,2147125723,2147771355,2147578139,2147571017,2321,2,13,25341
1360989875,5808,947.5200195312500000,41.3931503295898440,565.1260986328125000,4.3269200325012210,55.3549613952636700,54,100,99,78,81,15538,0,0,0,0,2147119506,2147775158,2147575579,2147568941,346,3,13,39550
1360993475,5811,981.0999755859375000,41.6909599304199200,568.1851196289062000,4.2319450378417970,55.3445281982421900,55,98,100,88,82,15535,0,0,0,0,2147122834,2147771382,2147570669,2147571611,44,2,13,56709
1360997075,5810,976.6400146484375000,42.2446289062500000,569.3380737304688000,4.1961288452148440,55.2748794555664060,55,99,101,78,81,15537,0,0,0,0,2147124726,2147773394,2147572928,2147570413,3540,2,13,13106
1361000675,5809,978.8300170898438000,41.8179702758789060,570.7211303710938000,4.1531491279602050,55.3553504943847660,56,98,100,79,83,15536,0,0,0,0,2147125540,2147768658,2147571712,2147570486,232,2,13,18043
1361004275,5811,977.2000122070312000,42.0629615783691400,570.6428833007812000,4.1555809974670410,55.3159599304199200,55,96,101,79,81,15538,0,0,0,0,2147126500,2147775305,2147577398,2147569618,88,3,13,46809
1361007875,5811,976.3699951171875000,42.0653495788574200,571.4661865234375000,4.1299901008605960,55.3291282653808600,55,102,100,78,82,15534,0,0,0,0,2147122925,2147778340,2147574098,2147567424,3521,2,13,49210
1361011475,5809,979.2100219726562000,41.9899482727050800,571.2982177734375000,4.1352100372314450,55.3339500427246100,55,97,99,77,81,15532,0,0,0,0,2147122770,2147769801,2147571986,2147572461,3552,2,13,59516
1361015075,5809,985.0999755859375000,41.9210205078125000,570.8453979492188000,4.1492857933044430,55.3407592773437500,55,98,99,78,81,15535,0,0,0,0,2147125165,2147771337,2147573403,2147570953,3072,2,13,41263
1361018675,5809,980.6300048828125000,42.0765190124511700,572.2515869140625000,4.1055698394775390,55.3305702209472660,55,98,101,77,82,15535,0,0,0,0,2147125485,2147768338,2147578496,2147567762,56,2,13,24491
1361022275,5810,982.6199951171875000,42.6597595214843750,572.2844238281250000,4.1045489311218260,55.2447700500488300,55,102,100,78,82,15536,0,0,0,0,2147118080,2147772315,2147572105,2147570980,2698,3,13,14975
1361025875,5814,977.6400146484375000,42.0971984863281250,572.1187133789062000,4.1097030639648440,55.3267593383789060,53,99,99,78,82,15534,0,0,0,0,2147123629,2147774244,2147570569,2147570733,27,2,13,16047
1361029475,5809,985.1099853515625000,42.2070198059082000,572.1033935546875000,4.1101779937744140,55.3102111816406250,55,99,100,79,82,15534,0,0,0,0,2147123392,2147775396,2147573394,2147570605,80,2,13,24791
1361033075,5809,986.4199829101562000,41.9834594726562500,571.3953857421875000,4.1321911811828610,55.3384895324707000,55,98,100,77,82,15534,0,0,0,0,2147123785,2147771364,2147572937,2147568137,181,2,13,15821
1361036675,5813,991.6799926757812000,42.0669784545898440,571.3925781250000000,4.1322770118713380,55.3277587890625000,55,99,99,78,82,15532,0,0,0,0,2147127286,2147772571,2147580809,2147567972,3556,2,13,11948
1361040275,5809,992.5499877929688000,41.6485595703125000,570.9987182617188000,4.1445240974426270,55.3795509338378900,55,99,100,78,81,15533,0,0,0,0,2147123776,2147776292,2147575597,2147569380,3366,3,13,37960
1361043875,5809,989.2800292968750000,41.0733795166015600,570.4215698242188000,4.1624598503112790,55.4580497741699200,55,100,101,78,82,15530,0,0,0,0,2147125659,2147771913,2147574217,2147572068,442,2,13,58792
1361047475,5811,988.6099853515625000,41.2295799255371100,570.6179199218750000,4.1563568115234375,55.4417304992675800,55,100,99,78,82,15532,0,0,0,0,2147125769,2147774153,2147574601,2147572708,3412,2,13,55196
1361051075,5812,993.1799926757812000,41.2273902893066400,570.8682250976562000,4.1485791206359860,55.4407882690429700,55,98,100,77,82,15532,0,0,0,0,2147122185,2147771995,2147574089,2147566820,3314,2,13,45719
1361054675,5809,988.6500244140625000,41.7056083679199200,571.3314819335938000,4.1341757774353030,55.3752212524414060,54,99,99,78,81,15531,0,0,0,0,2147123949,2147768000,2147576365,2147568484,262,2,13,35853
1361058275,5808,986.0999755859375000,41.1779098510742200,571.4177856445312000,4.1314949989318850,55.4575614929199200,55,98,101,79,82,15531,0,0,0,0,2147124754,2147770880,2147572955,2147569462,361,2,13,41543
1361061875,5807,983.8200073242188000,40.6835212707519500,573.5692749023438000,4.0645899772644040,55.5527381896972660,55,96,100,77,82,15528,0,0,0,0,2147125622,2147770395,2147571492,2147573101,29,3,13,25690
1361065475,5807,992.7800292968750000,40.9748802185058600,572.5211791992188000,4.0971870422363280,55.4967994689941400,55,98,99,79,81,15531,0,0,0,0,2147125147,2147772992,2147577801,2147570102,410,2,13,39057
1361069075,5809,991.3300170898438000,41.8194618225097660,571.3856811523438000,4.1324920654296875,55.3658905029296900,54,96,99,77,81,15528,0,0,0,0,2147125357,2147775469,2147572132,2147570834,109,2,13,52095
1361072675,5811,994.5700073242188000,41.8485488891601560,571.2229003906250000,4.1375517845153810,55.3571090698242200,55,100,100,79,82,15529,0,0,0,0,2147125997,2147777261,2147571739,2147567808,94,2,13,38291
1361076275,5810,991.6199951171875000,41.7237205505371100,571.4993286132812000,4.1289620399475100,55.3733901977539060,54,99,100,78,81,15530,0,0,0,0,2147126454,2147782875,2147580644,2147569572,198,2,13,35398
1361079875,5808,986.7399902343750000,41.7908096313476560,571.4171142578125000,4.1315159797668460,55.3670806884765600,55,101,99,78,81,15530,0,0,0,0,2147123693,2147767798,2147571785,2147570742,3401,2,13,51547
1361083475,5812,999.7700195312500000,41.8274612426757800,571.2103881835938000,4.1379408836364750,55.3599395751953100,55,98,99,78,82,15528,0,0,0,0,2147124891,2147771090,2147573686,2147568640,39,2,13,7932
1361087075,5811,1001.1599731445312000,41.8087310791015600,571.2490234375000000,4.1367421150207520,55.3639488220214840,55,99,100,78,81,15527,0,0,0,0,2147122276,2147769252,2147575049,2147568603,3417,2,13,9036
1361090675,5809,992.9099731445312000,40.4850883483886700,571.1370849609375000,4.1402192115783690,55.5525512695312500,55,100,100,78,82,15528,0,0,0,0,2147125238,2147767442,2147573129,2147565869,206,2,13,18730
1361094275,5808,990.7199707031250000,41.7208900451660160,571.4691772460938000,4.1298961639404300,55.3756294250488300,55,99,100,78,81,15527,0,0,0,0,2147124717,2147771218,2147570770,2147569152,3341,2,13,63805
1361097875,5810,992.3900146484375000,41.8424987792968750,571.3798217773438000,4.1326751708984375,55.3558616638183600,54,96,100,78,81,15528,0,0,0,0,2147124781,2147772900,2147578678,2147571739,3423,2,13,6349
1361101475,5811,994.5599975585938000,41.6936683654785160,571.5421142578125000,4.1276278495788570,55.3842506408691400,56,96,100,78,82,15527,0,0,0,0,2147125732,2147768484,2147577965,2147570852,3155,2,13,11372
1361105075,5808,996.7199707031250000,41.5328407287597660,571.3826904296875000,4.1325860023498535,55.4005393981933600,55,100,100,79,81,15528,0,0,0,0,2147123904,2147772297,2147570313,2147565778,3498,2,13,51401
1361108675,5811,988.7399902343750000,41.6335296630859400,571.7783813476562000,4.1202812194824220,55.3915405273437500,54,103,99,78,83,15529,0,0,0,0,2147124827,2147772187,2147579547,2147569216,3403,2,13,52145
1361112275,5808,988.9699707031250000,41.6569595336914060,572.4390869140625000,4.0997371673583980,55.3944702148437500,55,98,100,77,82,15527,0,0,0,0,2147121993,2147774390,2147574966,2147570477,242,3,13,13779
1361115875,5810,992.9199829101562000,41.8317604064941400,572.1271972656250000,4.1094379425048830,55.3693504333496100,53,98,108,78,81,15527,0,0,0,0,2147125330,2147775268,2147576484,2147571337,304,2,13,44759
1361119475,5811,987.0800170898438000,41.8952407836914060,571.7108764648438000,4.1223812103271480,55.3583793640136700,55,99,100,78,81,15529,0,0,0,0,2147121737,2147770651,2147572635,2147568914,3456,2,13,27838
1361123075,5811,991.8400268554688000,41.9606094360351560,572.1036987304688000,4.1101679801940920,55.3511810302734400,55,97,100,78,81,15525,0,0,0,0,2147128228,2147771227,2147578651,2147570925,74,2,13,61952
1361126675,5813,992.1599731445312000,41.9562492370605500,571.8699951171875000,4.1174349784851070,55.3494911193847660,55,99,99,78,82,15524,0,0,0,0,2147125869,2147774189,2147576832,2147572406,129,3,13,49798
1361128557,5808,993.6799926757812000,42.0862503051757800,572.1234741210938000,4.1095538139343260,55.3282394409179700,55,99,100,77,82,15526,0,0,0,0,2147125165,2147769810,2147577709,2147571648,171,2,13,1593
